Home   Weather   Pasco   Past weeks

Flag for USA Past Weather in Pasco, Washington, USA — Yesterday and Last 2 Weeks

Now
69 °F

Sunny.


Feels Like: 69 °F
Forecast: 46 / 73 °F
Wind: 5 mph from North

Location: Tri-Cities Airport

Current Time: Sep 24, 2016 at 1:58:00 PM

Latest Report: Sep 24, 2016 at 12:53 PM


Visibility: 10 mi

Pressure: 30.32 "Hg

Humidity: 32%

Dew Point: 38 °F

Location of PascoLocation

Past Weather in Pasco — Graph

°F

Pasco Temperature Yesterday

Maximum temperature yesterday: 66 °F (at 1:53 PM)
Minimum temperature yesterday: 48 °F (at 12:53 AM)
Average temperature yesterday: 58 °F

High & Low Weather Summary for the Past Weeks

 TemperatureHumidityPressure
High91 °F (Sep 10, 4:53 PM)89% (Sep 14, 6:53 AM)30.34 "Hg (Sep 14, 6:53 AM)
Low37 °F (Sep 14, 5:53 AM)13% (Sep 14, 2:53 PM)29.83 "Hg (Sep 10, 6:53 PM)
Average62 °F52%30.02 "Hg
* Reported Sep 9 11:53 AM — Sep 24 11:53 AM, Pasco, Weather by CustomWeather, © 2016

Note: Actual official high and low records may vary slightly from our data, if they occured in-between our weather recording intervals... More about our weather records

Advertising

Pasco Weather History for the Previous 24 Hours

Scroll right to see more
 ConditionsComfort  
Time TempWeatherWind HumidityBarometerVisibility
11:53 AM
Sat, Sep 24
68 °FSunny.7 mph33%30.33 "Hg10 mi
10:53 AM66 °FSunny.9 mph37%30.34 "Hg10 mi
9:53 AM62 °FSunny.9 mph48%30.32 "Hg10 mi
8:53 AM57 °FSunny.7 mph60%30.32 "Hg10 mi
7:53 AM50 °FSunny.7 mph77%30.30 "Hg10 mi
6:53 AM42 °FSunny.No wind89%30.28 "Hg10 mi
5:53 AM44 °FClear.6 mph82%30.25 "Hg10 mi
4:53 AM43 °FClear.No wind86%30.24 "Hg10 mi
3:53 AM46 °FClear.3 mph83%30.22 "Hg10 mi
2:53 AM51 °FClear.6 mph77%30.19 "Hg10 mi
1:53 AM52 °FClear.8 mph75%30.18 "Hg10 mi
12:53 AM52 °FClear.No wind75%30.16 "Hg10 mi
11:53 PM
Fri, Sep 23
53 °FClear.7 mph74%30.14 "Hg10 mi
10:53 PM56 °FClear.3 mph67%30.11 "Hg10 mi
9:53 PM58 °FClear.12 mph65%30.07 "Hg10 mi
8:53 PM60 °FClear.13 mph60%30.05 "Hg10 mi
7:53 PM62 °FClear.14 mph54%30.04 "Hg10 mi
6:53 PM64 °FOvercast.16 mph47%30.03 "Hg10 mi
5:53 PM66 °FPartly sunny.16 mph40%30.02 "Hg10 mi
4:53 PM65 °FPartly sunny.10 mph42%30.04 "Hg10 mi
3:53 PM62 °FLight rain. Overcast.8 mph52%30.03 "Hg10 mi
2:53 PM62 °FMore clouds than sun.21 mph50%30.04 "Hg10 mi
1:53 PM66 °FMostly cloudy.20 mph42%30.03 "Hg10 mi
Weather by CustomWeather, © 2016

See weather overviewHow to use our weather pages